Lawrenceville, GA

4:27 AM EST on November 21, 2019 (GMT -0500)
Gwinnett County-Briscoe

Weather History for KLZU - September, 2019

Change the Weather History Date:

Wednesday, September 18, 2019

  Actual Average (WUND) Record (WUND)
Temperature  
Mean Temperature 74 °F -  
Max Temperature 80 °F - - (-1)
Min Temperature 68 °F - - (-1)
Cooling Degree Days 8    
Growing Degree Days 24 (Base 50)    
Moisture  
Dew Point 68 °F    
Average Humidity 81    
Maximum Humidity 93    
Minimum Humidity 71    
Precipitation  
Precipitation 0.00 in - - ()
Sea Level Pressure  
Sea Level Pressure 30.08 in    
Wind  
Wind Speed 7 mph (ENE)    
Max Wind Speed 14 mph    
Max Gust Speed 21 mph    
Visibility 9 miles    
Events      
Averages and records for this station are not official NWS values.
T = Trace of Precipitation, MM = Missing Value Source: NWS Daily Summary

Daily Weather History Graph

Daily Weather History Graph

Search for Another Location

Airport or City:

Astronomy

Sep. 18, 2019 Rise Set
Actual Time 7:21 AM EDT 7:38 PM EDT
Civil Twilight 6:55 AM EDT 8:03 PM EDT
Nautical Twilight 6:26 AM EDT 8:32 PM EDT
Astronomical Twilight 5:57 AM EDT 9:02 PM EDT
Moon 10:23 PM EDT (9/18) 11:13 AM EDT (9/18)
Length of Visible Light 13h 07m
Length of Day
12h 17m
Waning Gibbous, 82% of the Moon is Illuminated
Sep 18
Waning Gibbous
Sep 21
Last Quarter
Sep 28
New
Oct 5
First Quarter
Oct 13
Full

Hourly Weather History & Observations

Time (EDT) Temp. Dew Point Humidity Pressure Visibility Wind Dir Wind Speed Gust Speed Precip Events Conditions
12:56 AM 73.0 °F 71.1 °F 93% 29.99 in 10.0 mi Calm Calm - N/A   Clear
1:56 AM 72.0 °F 70.0 °F 93% 29.99 in 10.0 mi Calm Calm - N/A   Clear
2:56 AM 73.9 °F 68.0 °F 82% 29.98 in 10.0 mi NE 3.5 mph - N/A   Clear
3:56 AM 73.9 °F 69.1 °F 85% 29.99 in 10.0 mi NE 6.9 mph - N/A   Clear
4:56 AM 73.0 °F 69.1 °F 87% 29.99 in 10.0 mi ENE 5.8 mph - N/A   Clear
5:56 AM 72.0 °F 69.1 °F 91% 30.01 in 10.0 mi ENE 6.9 mph - N/A   Clear
6:56 AM 71.1 °F 69.1 °F 93% 30.03 in 7.0 mi ENE 10.4 mph - N/A   Clear
7:56 AM 71.1 °F 68.0 °F 90% 30.06 in 10.0 mi ENE 9.2 mph - N/A   Clear
8:56 AM 73.0 °F 69.1 °F 87% 30.07 in 10.0 mi East 11.5 mph - N/A   Scattered Clouds
9:28 AM 75.2 °F 69.8 °F 83% 30.08 in 10.0 mi ENE 11.5 mph 19.6 mph N/A   Mostly Cloudy
9:56 AM 75.0 °F 69.1 °F 82% 30.09 in 10.0 mi East 13.8 mph 19.6 mph N/A   Mostly Cloudy
10:18 AM 75.2 °F 69.8 °F 83% 30.09 in 9.0 mi East 13.8 mph 20.7 mph N/A   Overcast
10:56 AM 75.0 °F 69.1 °F 82% 30.10 in 5.0 mi East 11.5 mph - N/A   Haze
11:56 AM 77.0 °F 70.0 °F 79% 30.10 in 10.0 mi East 8.1 mph - N/A   Mostly Cloudy
12:56 PM 77.0 °F 70.0 °F 79% 30.11 in 7.0 mi East 12.7 mph - N/A   Mostly Cloudy
1:56 PM 78.1 °F 69.1 °F 74% 30.11 in 7.0 mi East 10.4 mph - N/A   Mostly Cloudy
2:56 PM 79.0 °F 69.1 °F 72% 30.10 in 7.0 mi ENE 12.7 mph - N/A   Mostly Cloudy
3:56 PM 78.1 °F 69.1 °F 74% 30.10 in 7.0 mi ENE 10.4 mph - N/A   Mostly Cloudy
4:26 PM 77.0 °F 69.8 °F 78% 30.09 in 7.0 mi ENE 12.7 mph - N/A   Overcast
4:56 PM 78.1 °F 68.0 °F 71% 30.09 in 7.0 mi East 12.7 mph - N/A   Mostly Cloudy
5:56 PM 77.0 °F 66.9 °F 71% 30.09 in 7.0 mi ENE 12.7 mph 17.3 mph N/A   Clear
6:56 PM 75.0 °F 66.0 °F 73% 30.09 in 10.0 mi ENE 9.2 mph - N/A   Clear
7:56 PM 73.0 °F 64.9 °F 76% 30.11 in 10.0 mi ENE 8.1 mph - N/A   Clear
8:56 PM 71.1 °F 63.0 °F 75% 30.12 in 10.0 mi ENE 8.1 mph - N/A   Clear
9:56 PM 69.1 °F 62.1 °F 78% 30.14 in 10.0 mi ENE 6.9 mph - N/A   Clear
10:56 PM 68.0 °F 61.0 °F 78% 30.17 in 10.0 mi East 6.9 mph - N/A   Clear
11:56 PM 69.1 °F 61.0 °F 75% 30.17 in 10.0 mi East 4.6 mph - N/A   Overcast